EW0648 Weather Reports


time (UTC)temp
C
wind
direction
speed
KPH
gust
KPH
rain 1hr
cm
rain 24hr
cm
rain mn
cm
humidity
%
barometer
mb
20200803144259 32 325 1.6 8.0 0.00 0.00 0.00 59 1013.6
20200803142258 31 268 1.6 8.0 0.00 0.00 0.00 60 1013.3
20200803141759 31 85 0.0 1.6 0.00 0.00 0.00 63 1013.3
20200803141257 31 239 1.6 4.8 0.00 0.00 0.00 62 1013.2
20200803140758 32 338 3.2 9.7 0.00 0.00 0.00 61 1013.3
20200803140259 31 343 0.0 8.0 0.00 0.00 0.00 62 1013.2
20200803135258 31 282 0.0 1.6 0.00 0.00 0.00 64 1013.3
20200803134759 31 328 1.6 8.0 0.00 0.00 0.00 65 1013.2
20200803134258 31 312 1.6 3.2 0.00 0.00 0.00 65 1013.2
20200803133758 31 281 1.6 3.2 0.00 0.00 0.00 66 1013.2
20200803132258 31 340 1.6 3.2 0.00 0.00 0.00 69 1013.1
20200803131758 31 308 0.0 3.2 0.00 0.00 0.00 73 1013.2
20200803131258 31 309 1.6 1.6 0.00 0.00 0.00 71 1013.1
20200803130758 30 328 0.0 0.0 0.00 0.00 0.00 74 1013.1
20200803130259 30 325 0.0 1.6 0.00 0.00 0.00 73 1013.0
20200803124758 29 338 0.0 0.0 0.00 0.00 0.00 79 1012.9
20200803123759 28 338 0.0 0.0 0.00 0.00 0.00 82 1013.0
20200803123258 28 335 0.0 0.0 0.00 0.00 0.00 84 1012.9
20200803122800 28 336 0.0 0.0 0.00 0.00 0.00 84 1012.8
20200803122258 27 335 0.0 0.0 0.00 0.00 0.00 86 1012.7
20200803121259 26 335 0.0 0.0 0.00 0.00 0.00 89 1012.8
20200803120258 26 335 0.0 0.0 0.00 0.00 0.00 90 1012.7
20200803115759 25 335 0.0 0.0 0.00 0.00 0.00 91 1012.7
20200803114258 24 335 0.0 0.0 0.00 0.00 0.00 91 1012.5
20200803113300 24 335 0.0 0.0 0.00 0.00 0.00 91 1012.5
20200803112759 24 335 0.0 0.0 0.00 0.00 0.00 91 1012.5
20200803111759 24 336 0.0 0.0 0.00 0.00 0.00 91 1012.2
20200803111259 24 336 0.0 0.0 0.00 0.00 0.00 91 1012.2
20200803110758 24 336 0.0 0.0 0.00 0.00 0.00 91 1012.2
20200803110258 24 335 0.0 0.0 0.00 0.00 0.00 91 1012.1
20200803105800 24 335 0.0 0.0 0.00 0.00 0.00 91 1012.0
20200803105300 24 335 0.0 0.0 0.00 0.00 0.00 91 1012.0
20200803104800 24 335 0.0 0.0 0.00 0.00 0.00 90 1011.9
20200803104300 24 335 0.0 0.0 0.00 0.00 0.00 90 1011.9
20200803103259 24 336 0.0 0.0 0.00 0.00 0.00 90 1011.7
20200803102300 24 335 0.0 0.0 0.00 0.00 0.00 90 1011.7
20200803101758 25 335 0.0 0.0 0.00 0.00 0.00 90 1011.6
20200803101300 25 335 0.0 0.0 0.00 0.00 0.00 90 1011.5
20200803100259 25 335 0.0 0.0 0.00 0.00 0.00 90 1011.5
20200803095759 25 336 0.0 0.0 0.00 0.00 0.00 90 1011.5
20200803095258 25 335 0.0 0.0 0.00 0.00 0.00 90 1011.4
20200803094259 24 335 0.0 0.0 0.00 0.00 0.00 90 1011.4
20200803093759 25 336 0.0 0.0 0.00 0.00 0.00 90 1011.4
20200803093259 25 335 0.0 0.0 0.00 0.00 0.00 90 1011.3
20200803092259 25 336 0.0 0.0 0.00 0.00 0.00 89 1011.1
20200803091759 25 336 0.0 0.0 0.00 0.00 0.00 89 1011.1
20200803091259 25 336 0.0 0.0 0.00 0.00 0.00 89 1011.0
20200803090759 25 335 0.0 0.0 0.00 0.00 0.00 89 1011.0
20200803090259 25 336 0.0 0.0 0.00 0.00 0.00 89 1011.0
20200803085759 25 335 0.0 0.0 0.00 0.00 0.00 88 1011.0
20200803085259 25 335 0.0 0.0 0.00 0.00 0.00 88 1011.0
20200803083759 25 335 0.0 0.0 0.00 0.00 0.00 88 1011.0
20200803083259 25 335 0.0 0.0 0.00 0.00 0.00 87 1010.9
20200803082800 25 335 0.0 0.0 0.00 0.00 0.00 87 1010.9
20200803081758 25 335 0.0 0.0 0.00 0.00 0.00 88 1010.9
20200803080800 25 338 0.0 0.0 0.00 0.00 0.00 89 1011.1
20200803080300 25 342 0.0 0.0 0.00 0.00 0.00 89 1011.2
20200803075300 25 342 0.0 0.0 0.00 0.00 0.00 88 1011.1
20200803074300 26 342 0.0 0.0 0.00 0.00 0.00 88 1011.3
20200803073300 26 342 0.0 0.0 0.00 0.00 0.00 88 1011.2
20200803072759 26 342 0.0 0.0 0.00 0.00 0.00 88 1011.2
20200803072300 26 342 0.0 0.0 0.00 0.00 0.00 87 1011.3
20200803071800 26 342 0.0 0.0 0.00 0.00 0.00 87 1011.2
20200803071300 26 342 0.0 0.0 0.00 0.00 0.00 88 1011.3
20200803070800 26 342 0.0 0.0 0.00 0.00 0.00 87 1011.4
20200803070259 26 342 0.0 0.0 0.00 0.00 0.00 87 1011.5
20200803065759 26 342 0.0 0.0 0.00 0.00 0.00 87 1011.5
20200803065300 26 342 0.0 0.0 0.00 0.00 0.00 87 1011.5
20200803063259 26 342 0.0 0.0 0.00 0.00 0.00 86 1011.5
20200803062800 26 342 0.0 0.0 0.00 0.00 0.00 86 1011.6
20200803062300 26 341 0.0 0.0 0.00 0.00 0.00 86 1011.9
20200803061800 27 341 0.0 0.0 0.00 0.00 0.00 85 1012.0
20200803061259 27 341 0.0 0.0 0.00 0.00 0.00 85 1012.0
20200803060800 27 342 0.0 0.0 0.00 0.00 0.00 85 1011.9
20200803060259 27 341 0.0 0.0 0.00 0.00 0.00 85 1011.8
20200803055800 27 332 0.0 0.0 0.00 0.00 0.00 84 1011.6
20200803055300 26 332 0.0 0.0 0.00 0.00 0.00 85 1011.5
20200803054800 26 332 0.0 0.0 0.00 0.00 0.00 85 1011.7
20200803054301 26 332 0.0 0.0 0.00 0.00 0.00 85 1011.8
20200803053800 26 332 0.0 0.0 0.00 0.00 0.00 85 1011.8
20200803053300 26 319 0.0 0.0 0.00 0.00 0.00 85 1011.9
20200803052759 26 319 0.0 0.0 0.00 0.00 0.00 84 1011.9
20200803052300 26 319 0.0 0.0 0.00 0.00 0.00 84 1012.0
20200803051301 26 319 0.0 0.0 0.00 0.00 0.00 83 1011.8
20200803050259 26 319 0.0 0.0 0.00 0.00 0.00 83 1011.7
20200803045759 27 319 0.0 0.0 0.00 0.00 0.00 82 1011.7
20200803043300 26 319 0.0 0.0 0.00 0.00 0.00 83 1011.7
20200803042800 27 319 0.0 0.0 0.00 0.00 0.00 82 1011.8
20200803041800 27 319 0.0 0.0 0.00 0.00 0.00 82 1011.7
20200803041300 27 319 0.0 0.0 0.00 0.00 0.00 82 1011.6
20200803040824 27 319 0.0 0.0 0.00 0.00 0.00 82 1011.6
20200803040300 27 115 0.0 0.0 0.00 0.00 0.00 82 1011.7
20200803035759 27 115 0.0 0.0 0.00 0.00 0.00 82 1011.6
20200803034800 27 115 0.0 0.0 0.00 0.00 0.00 81 1011.6
20200803033300 27 115 0.0 0.0 0.00 0.00 0.00 80 1011.6
20200803032800 27 114 0.0 0.0 0.00 0.00 0.00 80 1011.7
20200803031800 27 114 0.0 0.0 0.00 0.00 0.00 80 1011.7
20200803031300 27 114 0.0 0.0 0.00 0.00 0.00 79 1011.7
20200803030800 28 115 0.0 0.0 0.00 0.00 0.00 79 1011.7
20200803030259 28 117 0.0 0.0 0.00 0.00 0.00 79 1011.7
20200803025800 28 116 0.0 1.6 0.00 0.00 0.00 79 1011.9
20200803025300 28 313 0.0 1.6 0.00 0.00 0.00 80 1012.0
20200803024800 28 248 0.0 0.0 0.00 0.00 0.00 80 1012.0
20200803023801 28 295 0.0 0.0 0.00 0.00 0.00 79 1011.8
20200803022300 28 295 0.0 1.6 0.00 0.00 0.00 78 1011.6
20200803021759 28 297 0.0 1.6 0.00 0.00 0.00 78 1011.5
20200803021300 28 259 0.0 1.6 0.00 0.00 0.00 78 1011.5
20200803020301 28 355 1.6 3.2 0.00 0.00 0.00 77 1011.4
20200803015301 28 296 0.0 1.6 0.00 0.00 0.00 77 1011.1
20200803014800 28 298 0.0 3.2 0.00 0.00 0.00 76 1011.1
20200803013802 29 228 0.0 1.6 0.00 0.00 0.00 76 1011.1
20200803013301 29 243 0.0 3.2 0.00 0.00 0.00 76 1011.0
20200803012301 29 259 0.0 0.0 0.00 0.00 0.00 76 1010.9
20200803011300 29 269 0.0 0.0 0.00 0.00 0.00 76 1010.8
20200803010800 29 273 0.0 0.0 0.00 0.00 0.00 76 1010.8
20200803010300 29 273 0.0 0.0 0.00 0.00 0.00 75 1010.6
20200803005800 29 273 0.0 0.0 0.00 0.00 0.00 75 1010.6
20200803004800 30 229 0.0 0.0 0.00 0.00 0.00 74 1010.6
20200803003800 30 243 0.0 1.6 0.00 0.00 0.00 75 1010.5
20200803002800 30 306 0.0 1.6 0.00 0.00 0.00 74 1010.3
20200803002300 30 258 0.0 1.6 0.00 0.00 0.00 74 1010.3
20200803001800 30 338 1.6 8.0 0.00 0.00 0.00 74 1010.2
20200803001300 30 295 0.0 4.8 0.00 0.00 0.00 74 1010.2
20200803000807 30 298 0.0 9.7 0.00 0.00 0.00 73 1010.0
20200803000300 30 341 0.0 8.0 0.00 0.00 0.00 74 1009.9
20200802235801 30 325 1.6 8.0 0.00 0.00 0.00 74 1009.9
20200802235301 30 349 1.6 8.0 0.00 0.00 0.00 75 1009.8
20200802234302 31 340 0.0 9.7 0.00 0.00 0.00 75 1009.7
20200802233801 31 324 3.2 9.7 0.00 0.00 0.00 75 1009.7
20200802233300 31 290 0.0 4.8 0.00 0.00 0.00 76 1009.7
20200802232801 31 327 4.8 11.3 0.00 0.00 0.00 74 1009.7
20200802232301 31 308 4.8 12.9 0.00 0.00 0.00 74 1009.8
20200802231800 31 343 3.2 11.3 0.00 0.00 0.00 74 1009.7
20200802231300 31 322 3.2 9.7 0.00 0.00 0.00 73 1009.7
20200802230802 31 37 0.0 3.2 0.00 0.00 0.00 72 1009.5
20200802230300 31 3 1.6 8.0 0.00 0.00 0.00 71 1009.7
20200802225800 31 292 0.0 9.7 0.00 0.00 0.00 71 1009.6
20200802224800 31 353 4.8 14.5 0.00 0.00 0.00 71 1009.7
20200802224300 31 35 0.0 8.0 0.00 0.00 0.00 70 1009.6
20200802223801 31 312 6.4 14.5 0.00 0.00 0.00 70 1009.7
20200802223301 31 280 6.4 16.1 0.00 0.00 0.00 70 1009.7
20200802222801 31 314 8.0 14.5 0.00 0.00 0.00 69 1009.7
20200802222300 31 318 8.0 20.9 0.00 0.00 0.00 71 1009.7
20200802220801 32 328 1.6 8.0 0.00 0.00 0.00 70 1009.6
20200802215800 32 333 1.6 9.7 0.00 0.00 0.00 71 1009.6
20200802215301 32 336 6.4 16.1 0.00 0.00 0.00 70 1009.5
20200802214802 32 330 6.4 16.1 0.00 0.00 0.00 69 1009.5
20200802213801 32 295 1.6 8.0 0.00 0.00 0.00 69 1009.6
20200802213301 32 326 4.8 11.3 0.00 0.00 0.00 68 1009.7
20200802212801 32 79 3.2 12.9 0.00 0.00 0.00 68 1009.8
20200802212300 32 94 0.0 1.6 0.00 0.00 0.00 69 1009.7
20200802210301 32 280 1.6 3.2 0.00 0.00 0.00 68 1009.9
20200802205300 32 3 3.2 11.3 0.00 0.00 0.00 66 1009.9
20200802204801 32 32 1.6 4.8 0.00 0.00 0.00 65 1009.9
20200802204302 32 174 3.2 9.7 0.00 0.00 0.00 64 1009.8
20200802203301 32 307 1.6 3.2 0.00 0.00 0.00 66 1009.9
20200802202802 32 124 0.0 3.2 0.00 0.00 0.00 67 1010.0
20200802201801 32 279 0.0 9.7 0.00 0.00 0.00 67 1010.2
20200802201301 32 165 1.6 4.8 0.00 0.00 0.00 69 1010.1
20200802200801 32 32 9.7 19.3 0.00 0.00 0.00 70 1010.0
20200802200300 32 320 4.8 19.3 0.00 0.00 0.00 75 1010.1
20200802195301 31 333 6.4 12.9 0.00 0.00 0.00 76 1010.3
20200802194801 31 313 11.3 20.9 0.00 0.00 0.00 77 1010.3
20200802194301 30 330 4.8 16.1 0.00 0.00 0.00 79 1010.3
20200802193801 30 311 14.5 24.1 0.00 0.00 0.00 77 1010.2
20200802193301 31 323 6.4 20.9 0.00 0.00 0.00 77 1010.3
20200802192302 32 333 9.7 24.1 0.00 0.00 0.00 74 1010.4
20200802191800 33 319 16.1 29.0 0.00 0.00 0.00 70 1010.5
20200802191301 32 302 9.7 19.3 0.00 0.00 0.00 68 1010.4
20200802190302 32 320 4.8 16.1 0.00 0.00 0.00 69 1010.6
20200802185802 31 316 3.2 16.1 0.00 0.00 0.00 70 1010.9
20200802185301 31 304 8.0 12.9 0.00 0.00 0.00 69 1010.9
20200802184801 31 351 1.6 11.3 0.00 0.00 0.00 70 1010.9
20200802184301 32 324 1.6 16.1 0.00 0.00 0.00 70 1011.0
20200802183801 32 308 1.6 14.5 0.00 0.00 0.00 72 1010.7
20200802183302 32 2 4.8 14.5 0.00 0.00 0.00 71 1011.0
20200802181802 32 324 6.4 20.9 0.00 0.00 0.00 72 1010.9
20200802181301 32 358 1.6 14.5 0.00 0.00 0.00 74 1011.0
20200802180802 32 57 1.6 8.0 0.00 0.00 0.00 73 1011.1
20200802175802 32 336 3.2 9.7 0.00 0.00 0.00 68 1011.3
20200802174301 32 13 3.2 25.7 0.00 0.00 0.00 69 1011.2
20200802173801 33 320 3.2 25.7 0.00 0.00 0.00 67 1011.2
20200802173301 32 333 3.2 12.9 0.00 0.00 0.00 68 1011.3
20200802172801 32 344 3.2 12.9 0.00 0.00 0.00 67 1011.2
20200802172301 32 328 9.7 24.1 0.00 0.00 0.00 67 1011.3
20200802171802 32 309 9.7 24.1 0.00 0.00 0.00 68 1011.2
20200802171302 32 323 4.8 20.9 0.00 0.00 0.00 69 1011.4
20200802170802 32 338 1.6 12.9 0.00 0.00 0.00 70 1011.4
20200802170301 32 317 9.7 24.1 0.00 0.00 0.00 68 1011.4
20200802165802 32 327 8.0 19.3 0.00 0.00 0.00 70 1011.4
20200802164801 32 338 11.3 24.1 0.00 0.00 0.00 71 1011.6
20200802164302 32 310 4.8 19.3 0.00 0.00 0.00 71 1011.6
20200802163802 32 319 8.0 25.7 0.00 0.00 0.00 70 1011.6
20200802163302 32 327 9.7 20.9 0.00 0.00 0.00 69 1011.6
20200802162802 32 357 4.8 12.9 0.00 0.00 0.00 71 1011.7
20200802162302 32 349 4.8 19.3 0.00 0.00 0.00 72 1011.7
20200802161801 32 309 4.8 20.9 0.00 0.00 0.00 72 1011.7
20200802160801 31 334 4.8 12.9 0.00 0.00 0.00 73 1011.9
20200802160301 31 345 4.8 24.1 0.00 0.00 0.00 75 1011.9
20200802155302 31 333 8.0 19.3 0.00 0.00 0.00 75 1012.0
20200802154801 31 311 6.4 19.3 0.00 0.00 0.00 76 1012.1
20200802153303 31 302 1.6 9.7 0.00 0.00 0.00 75 1012.2
20200802152802 31 338 3.2 14.5 0.00 0.00 0.00 74 1012.1
20200802152301 31 315 1.6 9.7 0.00 0.00 0.00 76 1012.2
20200802150801 31 345 0.0 1.6 0.00 0.00 0.00 77 1012.2
20200802145801 31 102 0.0 8.0 0.00 0.00 0.00 75 1012.2
20200802144802 31 13 0.0 9.7 0.00 0.00 0.00 76 1012.3